Location: Newark
(50.0336°N, 22.0047°E)
Time: 20:31:52
(UTC+00:00)

N. Korean satellite - Pass Details

Date: 01 February 2020
Orbit: 456 x 505 km, 97.2° (Epoch: 19 February)

Event Time Altitude Azimuth Distance (km) Brightness Sun altitude
Rises 04:15:23 0° 15° (NNE) 2,561 10.4 -17.9°
Reaches altitude 10° 04:17:28 10° 19° (NNE) 1,684 9.5 -17.6°
Maximum altitude 04:21:04 61° 101° (E) 566 7.1 -17.0°
Drops below altitude 10° 04:24:41 10° 182° (S) 1,695 9.4 -16.4°
Sets 04:26:47 0° 186° (S) 2,579 10.3 -16.1°
